KUIPER-00197

Last updated on Sun Mar 15 2026 00:02:06 GMT+0000 (Coordinated Universal Time)

1 67769U 26030F 26073.56480745 .00037847 00000+0 10495-2 0 9992 2 67769 51.8825 195.5062 0001963 53.1880 306.9286 15.36567883 5841
UTC large
Height (km)
Speed (km/s)
/
Latitude / Longitude
Inclination (degrees)
Orbital Period (minutes)
Azimuth
Elevation
Range (km)
Doppler Factor

Next 0 passes for location: London (51.5072 / 0.1276)

Sorry there are no passes over London.